DIRECTV 5 (TEMPO 1)

Last updated on Thu Apr 09 2026 00:02:47 GMT+0000 (Coordinated Universal Time)

1 27426U 02023A 26098.57538646 -.00000053 00000+0 00000+0 0 9994 2 27426 4.7000 76.1601 0003580 307.3157 270.3980 1.00272342 87428
UTC large
Height (km)
Speed (km/s)
/
Latitude / Longitude
Inclination (degrees)
Orbital Period (minutes)
Azimuth
Elevation
Range (km)
Doppler Factor

Next 0 passes for location: London (51.5072 / 0.1276)

Sorry there are no passes over London.